Stations météo

réclame
Mon MeteoGroup
Harstena, Suède (2563): Température de l'air & dewpoint: 19.09.2018 11:00:00 - 25.09.2018 11:00:00 (CEST)Harstena, Suède (2563): Vitesse du vent & gusts: 19.09.2018 11:00:00 - 25.09.2018 11:00:00 (CEST)Harstena, Suède (2563): Direction du vent: 19.09.2018 11:00:00 - 25.09.2018 11:00:00 (CEST)Harstena, Suède (2563): reduced air pressure: 19.09.2018 11:00:00 - 25.09.2018 11:00:00 (CEST)Harstena, Suède (2563): visibility: 19.09.2018 11:00:00 - 25.09.2018 11:00:00 (CEST)Harstena, Suède (2563): Quantités de précipitations: 19.09.2018 11:00:00 - 25.09.2018 11:00:00 (CEST)
Date & Time tt [°C] td [°C] ff [km/h] ff [knt] fx [km/h] fx [knt] dd ppp [hPa] vv [km] rr [mm]
25.09.2018 11:00:00 - - - - - - - - - -
25.09.2018 10:00:00 7,6 -0,6 14 8 29 16 WNW 1028,2 50 0,0
25.09.2018 09:00:00 6,1 -0,4 14 8 29 16 NW 1027,6 50 0,0
25.09.2018 08:00:00 5,1 -0,3 17 9 31 17 NW 1026,9 50 0,0
25.09.2018 07:00:00 4,9 -0,3 17 9 38 20 NW 1026,2 50 0,0
25.09.2018 06:00:00 5,3 -0,1 19 10 38 20 NW 1025,5 50 0,0
25.09.2018 05:00:00 5,9 -0,8 20 11 38 20 NW 1024,8 50 0,0
25.09.2018 04:00:00 6,0 -1,0 21 11 41 22 NNW 1024,1 50 0,0
25.09.2018 03:00:00 6,5 -0,7 21 11 44 24 NNW 1023,3 50 0,0
25.09.2018 02:00:00 7,0 -0,9 21 11 44 24 NNW 1022,6 50 0,0
25.09.2018 01:00:00 7,7 -0,5 21 11 42 23 NW 1021,9 50 0,0
25.09.2018 00:00:00 8,2 -1,1 22 12 41 22 NW 1021,0 50 0,0
24.09.2018 23:00:00 8,6 -0,7 20 11 39 21 NW 1020,2 50 0,0
24.09.2018 22:00:00 9,2 -0,1 19 10 36 19 NW 1019,4 50 0,0
24.09.2018 21:00:00 9,1 0,0 19 10 31 17 NW 1018,4 50 0,0
24.09.2018 20:00:00 9,2 -0,1 12 6 26 14 WNW 1017,8 50 0,0
24.09.2018 19:00:00 9,3 1,2 11 6 44 24 WNW 1016,9 50 0,0
24.09.2018 18:00:00 8,8 1,9 22 12 45 24 N 1016,2 50 0,0
24.09.2018 17:00:00 10,7 -1,1 27 14 45 24 NW 1015,3 50 0,0
24.09.2018 16:00:00 10,4 -0,4 23 13 43 23 NW 1014,8 50 0,0
24.09.2018 15:00:00 10,8 -0,4 26 14 42 23 NW 1014,1 50 0,0
24.09.2018 14:00:00 10,6 0,3 23 12 42 23 NW 1013,4 50 0,0
24.09.2018 13:00:00 10,9 0,6 21 11 41 22 NW 1012,4 50 0,0
24.09.2018 12:00:00 10,0 0,3 21 11 37 20 NW 1011,7 50 0,0
24.09.2018 11:00:00 9,2 0,9 18 10 37 20 NW 1011,1 50 0,0
24.09.2018 10:00:00 8,0 0,9 20 11 37 20 NW 1010,3 43 0,0
24.09.2018 09:00:00 7,4 0,6 20 11 37 20 NW 1009,4 50 0,0
24.09.2018 08:00:00 6,5 1,0 19 10 37 20 NW 1008,8 50 0,0
24.09.2018 07:00:00 6,6 0,3 21 11 32 17 NW 1008,1 50 0,0
24.09.2018 06:00:00 6,8 1,3 18 10 32 17 NNW 1007,4 50 0,0
24.09.2018 05:00:00 7,5 2,4 19 10 32 17 NNW 1006,7 50 0,0
24.09.2018 04:00:00 7,7 3,4 16 9 29 15 NNW 1005,9 50 0,0
24.09.2018 03:00:00 7,9 4,1 15 8 26 14 NNW 1005,0 50 0,0
24.09.2018 02:00:00 7,5 4,8 9 5 18 10 NW 1004,2 50 0,0
24.09.2018 01:00:00 7,6 4,9 6 4 11 6 WNW 1003,7 50 0,0
24.09.2018 00:00:00 7,6 5,2 7 4 11 6 W 1003,2 50 0,0
23.09.2018 23:00:00 7,8 5,4 6 3 29 16 W 1003,0 50 0,0
23.09.2018 22:00:00 8,7 5,4 8 4 29 16 N 1002,8 50 0,0
23.09.2018 21:00:00 10,0 4,6 11 6 17 9 NW 1002,2 50 0,0
23.09.2018 20:00:00 9,2 5,4 7 4 13 7 SW 1001,7 50 0,0
23.09.2018 19:00:00 10,2 4,6 4 2 30 16 WSW 1001,3 50 0,0
23.09.2018 18:00:00 10,8 5,5 11 6 30 16 NNW 1001,5 45 0,0
23.09.2018 17:00:00 12,3 6,8 8 4 36 19 NW 1001,2 50 0,0
23.09.2018 16:00:00 11,0 6,9 8 4 36 19 NW 1001,1 47 0,0
23.09.2018 15:00:00 15,5 4,8 13 7 36 19 W 1001,0 50 0,0
23.09.2018 14:00:00 14,5 4,8 14 8 36 19 W 1000,9 43 0,0
23.09.2018 13:00:00 13,9 5,0 16 8 39 21 W 1000,6 50 0,0
23.09.2018 12:00:00 13,8 5,7 16 9 39 21 W 1000,2 41 0,0
23.09.2018 11:00:00 12,1 5,9 14 7 34 18 W 1000,0 35 0,0
23.09.2018 10:00:00 11,7 5,8 14 8 36 20 W 999,9 33 0,0
23.09.2018 09:00:00 11,7 5,8 17 9 36 20 WSW 999,6 33 0,0
23.09.2018 08:00:00 10,8 5,5 18 10 36 19 WSW 999,5 31 0,0
23.09.2018 07:00:00 10,7 5,5 18 10 36 19 WSW 999,3 35 0,0
23.09.2018 06:00:00 10,9 5,6 16 9 31 17 W 999,2 43 0,0
23.09.2018 05:00:00 - - - - 24 13 - - - -
23.09.2018 04:00:00 9,1 6,7 13 7 26 14 SW 999,3 50 0,0
23.09.2018 03:00:00 9,0 6,6 15 8 29 15 SW 999,2 50 0,0
23.09.2018 02:00:00 8,8 6,1 15 8 32 18 SW 999,4 46 0,0
23.09.2018 01:00:00 8,5 5,6 17 9 32 18 SW 999,7 50 0,0
23.09.2018 00:00:00 8,4 5,2 18 10 35 19 SW 999,9 50 0,0
22.09.2018 23:00:00 8,6 5,2 22 12 40 21 SW 1000,1 50 0,0
22.09.2018 22:00:00 9,0 5,0 19 10 44 24 SW 1000,6 50 0,0
22.09.2018 21:00:00 9,7 4,3 25 13 44 24 SW 1000,4 50 0,0
22.09.2018 20:00:00 9,8 4,8 22 12 48 26 SW 1000,4 50 0,0
22.09.2018 19:00:00 11,4 3,7 25 13 48 26 WSW 1000,4 50 0,0
22.09.2018 18:00:00 12,3 4,8 22 12 56 31 WSW 1000,3 50 0,0
22.09.2018 17:00:00 13,3 3,9 26 14 63 34 WSW 1000,5 50 0,0
22.09.2018 16:00:00 13,8 3,6 27 14 63 34 WSW 1000,5 50 0,0
22.09.2018 15:00:00 15,2 3,7 27 15 61 33 WSW 1000,0 49 0,0
22.09.2018 14:00:00 15,6 4,3 29 15 60 32 WSW 999,4 34 0,0
22.09.2018 13:00:00 15,1 3,3 33 18 65 35 WSW 998,7 40 0,0
22.09.2018 12:00:00 14,5 3,3 36 19 68 37 W 997,9 38 0,0
22.09.2018 11:00:00 13,3 4,4 34 19 68 37 WSW 997,3 29 0,0
22.09.2018 10:00:00 12,7 5,4 31 17 59 32 WSW 996,3 22 0,0
22.09.2018 09:00:00 12,3 5,7 27 15 55 30 WSW 995,3 25 0,0
22.09.2018 08:00:00 11,7 6,0 27 15 59 32 SW 994,7 27 0,0
22.09.2018 07:00:00 11,0 5,7 32 17 59 32 SW 993,8 46 0,0
22.09.2018 06:00:00 11,0 5,3 30 16 59 32 SW 993,6 50 0,0
22.09.2018 05:00:00 10,9 5,8 31 17 53 29 SW 993,6 46 0,0
22.09.2018 04:00:00 10,8 6,4 34 19 53 29 SW 993,6 50 0,0
22.09.2018 03:00:00 10,4 7,1 29 16 51 28 SW 993,8 42 0,0
22.09.2018 02:00:00 10,2 7,8 31 17 48 26 SSW 993,8 25 0,0
22.09.2018 01:00:00 9,9 8,5 30 16 46 25 SSW 993,8 18 0,0
22.09.2018 00:00:00 - - - - 40 22 - - - -
21.09.2018 23:00:00 9,8 9,2 22 12 40 22 S 994,7 16 0,0
21.09.2018 22:00:00 10,1 9,5 22 12 34 18 S 994,8 18 0,0
21.09.2018 21:00:00 10,7 10,2 14 8 71 39 SSW 994,6 10 0,0
21.09.2018 20:00:00 12,9 11,3 23 12 71 39 WSW 994,6 6 0,0
21.09.2018 19:00:00 16,4 10,3 19 10 48 26 WSW 993,3 29 0,0
21.09.2018 18:00:00 13,8 11,3 30 16 55 30 S 993,9 15 0,0
21.09.2018 17:00:00 14,5 11,5 35 19 55 30 S 994,5 17 0,0
21.09.2018 16:00:00 16,1 12,3 30 16 54 29 S 995,0 19 0,0
21.09.2018 15:00:00 15,4 12,2 30 16 50 27 S 996,1 16 0,0
21.09.2018 14:00:00 14,8 11,9 28 15 43 23 S 997,0 15 0,0
21.09.2018 13:00:00 15,8 12,4 23 12 34 18 SSE 998,6 18 0,0
21.09.2018 12:00:00 14,2 12,4 21 11 32 18 SSE 1000,3 12 0,0
21.09.2018 11:00:00 13,4 11,8 19 10 34 18 S 1001,5 12 0,0
21.09.2018 10:00:00 13,7 12,3 19 10 34 18 S 1002,9 14 0,0
21.09.2018 09:00:00 12,6 11,8 21 11 34 18 S 1003,6 12 0,0
21.09.2018 08:00:00 12,7 12,1 19 10 34 19 S 1004,3 11 0,0
21.09.2018 07:00:00 12,8 12,3 22 12 34 19 S 1005,0 8 0,0
21.09.2018 06:00:00 12,0 11,4 16 9 29 16 S 1005,7 9 0,0
21.09.2018 05:00:00 11,9 11,4 18 10 31 17 S 1006,9 11 0,0
21.09.2018 04:00:00 12,7 12,4 21 11 31 17 SSW 1007,7 18 0,0
21.09.2018 03:00:00 11,8 11,3 14 8 19 10 S 1008,3 50 0,0
21.09.2018 02:00:00 11,4 10,8 9 5 17 9 SSW 1009,1 49 0,0
21.09.2018 01:00:00 11,2 10,3 10 5 18 10 SSW 1009,6 50 0,0
21.09.2018 00:00:00 11,2 9,8 10 5 23 13 SSW 1009,9 32 0,0
20.09.2018 23:00:00 12,3 10,2 14 8 24 13 SW 1010,2 34 0,0
20.09.2018 22:00:00 13,5 10,7 16 9 24 13 SW 1010,1 44 0,0
20.09.2018 21:00:00 14,6 11,2 14 8 27 15 SW 1009,6 50 0,0
20.09.2018 20:00:00 15,0 12,1 14 8 29 15 SW 1009,5 50 0,0
20.09.2018 19:00:00 14,7 12,6 15 8 34 18 SW 1009,0 50 0,0
20.09.2018 18:00:00 14,3 12,3 19 10 34 18 SW 1008,5 47 0,0
20.09.2018 17:00:00 15,1 13,0 18 10 33 18 SW 1008,7 20 0,0
20.09.2018 16:00:00 15,0 11,2 20 11 35 19 SSW 1008,4 20 0,0
20.09.2018 15:00:00 16,4 10,0 16 9 35 19 SSW 1008,4 30 0,0
20.09.2018 14:00:00 19,7 9,0 19 10 33 18 SW 1008,9 33 0,0
20.09.2018 13:00:00 19,4 7,5 15 8 38 20 WSW 1009,0 33 0,0
20.09.2018 12:00:00 19,2 6,7 16 9 38 20 WSW 1009,1 31 0,0
20.09.2018 11:00:00 18,9 5,7 20 11 38 20 WSW 1009,1 34 0,0
20.09.2018 10:00:00 18,0 9,6 19 10 28 15 SW 1008,5 36 0,0
20.09.2018 09:00:00 13,9 11,1 16 9 29 15 SSW 1008,4 27 0,0
20.09.2018 08:00:00 12,3 10,5 14 8 29 15 SSW 1008,1 20 0,0
20.09.2018 07:00:00 12,7 10,8 21 11 28 15 SSW 1007,7 24 0,0
20.09.2018 06:00:00 11,8 10,4 17 9 32 18 S 1007,4 19 0,0
20.09.2018 05:00:00 12,7 10,8 18 10 35 19 SSW 1007,8 21 0,0
20.09.2018 04:00:00 13,8 11,5 23 12 35 19 SSW 1007,5 24 0,0
20.09.2018 03:00:00 13,4 11,5 20 11 34 18 SSW 1007,9 20 0,0
20.09.2018 02:00:00 12,3 10,9 18 10 38 21 S 1008,4 16 0,0
20.09.2018 01:00:00 14,1 11,8 26 14 38 21 SSW 1008,9 24 0,0
20.09.2018 00:00:00 13,9 11,6 18 10 29 16 SSW 1009,4 31 0,0
19.09.2018 23:00:00 14,4 11,5 19 11 27 15 SSW 1009,9 35 0,0
19.09.2018 22:00:00 13,8 11,0 15 8 27 14 SSW 1010,2 36 0,0
19.09.2018 21:00:00 14,9 11,1 19 10 26 14 SW 1010,3 33 0,0
19.09.2018 20:00:00 16,1 11,7 15 8 23 13 SSW 1010,4 31 0,0
19.09.2018 19:00:00 16,2 11,4 15 8 24 13 SW 1010,5 33 0,0
19.09.2018 18:00:00 17,9 11,2 14 7 30 16 SW 1010,1 35 0,0
19.09.2018 17:00:00 21,3 11,6 11 6 33 18 WSW 1010,5 46 0,0
19.09.2018 16:00:00 22,0 11,4 17 9 38 21 WSW 1010,3 44 0,0
19.09.2018 15:00:00 21,8 10,9 22 12 41 22 WSW 1010,3 45 0,0
19.09.2018 14:00:00 21,9 10,7 19 10 41 22 WSW 1010,1 37 0,0
19.09.2018 13:00:00 21,1 11,1 22 12 38 20 WSW 1009,7 38 0,0
19.09.2018 12:00:00 20,4 11,1 18 10 37 20 WSW 1009,7 41 0,0
19.09.2018 11:00:00 19,5 11,3 16 9 37 20 W 1009,5 36 0,0

tt = Température de l'air
td = dewpoint
ff = Vitesse du vent
fx = gusts
dd = Direction du vent
ppp = reduced air pressure
vv = visibility
rr = Quantités de précipitations

stations d'obs. à proximité